Hourly Weather Alhos Vedros

Today, 3 December, Thursday

Time Temperature Precipitation Wind Pressure Humidity
00:00 +10°C° 0 mm 4 mps 762 mmHg 67%
01:00 +8°C° 0 mm 4 mps 761 mmHg 68%
02:00 +8°C° 0 mm 4 mps 761 mmHg 69%
03:00 +8°C° 0 mm 3 mps 761 mmHg 70%
04:00 +8°C° 0 mm 3 mps 761 mmHg 70%
05:00 +8°C° 0 mm 2 mps 761 mmHg 70%
06:00 +8°C° 0 mm 3 mps 761 mmHg 69%
07:00 +8°C° 0 mm 3 mps 761 mmHg 67%
08:00 +9°C° 0 mm 3 mps 761 mmHg 66%
09:00 +10°C° 0 mm 3 mps 761 mmHg 61%
10:00 +13°C° 0 mm 2 mps 761 mmHg 56%
11:00 +15°C° 0 mm 2 mps 761 mmHg 51%
12:00 +14°C° 0 mm 3 mps 760 mmHg 52%
13:00 +16°C° 0 mm 3 mps 760 mmHg 52%
14:00 +16°C° 0 mm 3 mps 759 mmHg 53%
15:00 +14°C° 0 mm 3 mps 759 mmHg 61%
16:00 +13°C° 0 mm 4 mps 759 mmHg 70%
17:00 +12°C° 0 mm 5 mps 759 mmHg 78%
18:00 +12°C° 0 mm 5 mps 759 mmHg 77%
19:00 +13°C° 0 mm 6 mps 759 mmHg 76%
20:00 +13°C° 0 mm 6 mps 759 mmHg 75%
21:00 +14°C° 0.1 mm 7 mps 758 mmHg 75%
22:00 +14°C° 0.1 mm 7 mps 757 mmHg 75%
23:00 +13°C° 0.1 mm 8 mps 757 mmHg 76%

Tomorrow, 4 December, Friday

Time Temperature Precipitation Wind Pressure Humidity
00:00 +13°C° 0.2 mm 8 mps 756 mmHg 75%
01:00 +13°C° 0.2 mm 9 mps 755 mmHg 74%
02:00 +13°C° 0.2 mm 9 mps 754 mmHg 73%
03:00 +12°C° 0.2 mm 9 mps 754 mmHg 73%
04:00 +12°C° 0.2 mm 10 mps 754 mmHg 72%
05:00 +11°C° 0.2 mm 10 mps 754 mmHg 71%
06:00 +11°C° 0.1 mm 10 mps 754 mmHg 70%
07:00 +9°C° 0.1 mm 10 mps 754 mmHg 69%
08:00 +9°C° 0.1 mm 10 mps 754 mmHg 68%
09:00 +9°C° 0.4 mm 10 mps 754 mmHg 69%
10:00 +9°C° 0.4 mm 10 mps 754 mmHg 70%
11:00 +8°C° 0.4 mm 10 mps 754 mmHg 71%
12:00 +8°C° 0.5 mm 11 mps 753 mmHg 68%
13:00 +8°C° 0.5 mm 11 mps 753 mmHg 65%
14:00 +8°C° 0.5 mm 11 mps 753 mmHg 63%
15:00 +8°C° 0.4 mm 11 mps 753 mmHg 65%
16:00 +7°C° 0.4 mm 11 mps 753 mmHg 66%
17:00 +6°C° 0.4 mm 11 mps 753 mmHg 68%
18:00 +6°C° 0.4 mm 10 mps 753 mmHg 69%
19:00 +6°C° 0.4 mm 9 mps 754 mmHg 70%
20:00 +6°C° 0.4 mm 9 mps 754 mmHg 71%
21:00 +6°C° 0.4 mm 9 mps 754 mmHg 72%
22:00 +6°C° 0.4 mm 8 mps 754 mmHg 73%
23:00 +6°C° 0.4 mm 8 mps 755 mmHg 74%

Day after tomorrow, 5 December, Saturday

Time Temperature Precipitation Wind Pressure Humidity
00:00 +6°C° 0.4 mm 7 mps 755 mmHg 75%
01:00 +6°C° 0.4 mm 7 mps 755 mmHg 76%
02:00 +6°C° 0.4 mm 7 mps 756 mmHg 77%
03:00 +7°C° 0.2 mm 6 mps 756 mmHg 76%
04:00 +7°C° 0.2 mm 6 mps 756 mmHg 75%
05:00 +5°C° 0.2 mm 6 mps 756 mmHg 75%
06:00 +7°C° 0.1 mm 5 mps 757 mmHg 74%
07:00 +7°C° 0.1 mm 5 mps 757 mmHg 73%
08:00 +8°C° 0.1 mm 5 mps 758 mmHg 73%
09:00 +9°C° 0.1 mm 5 mps 758 mmHg 68%
10:00 +10°C° 0.1 mm 6 mps 758 mmHg 63%
11:00 +11°C° 0.1 mm 6 mps 759 mmHg 59%
12:00 +11°C° 0.1 mm 6 mps 759 mmHg 60%
13:00 +11°C° 0.1 mm 7 mps 758 mmHg 60%
14:00 +11°C° 0.1 mm 7 mps 758 mmHg 61%
15:00 +10°C° 0.2 mm 7 mps 759 mmHg 65%
16:00 +9°C° 0.2 mm 7 mps 759 mmHg 68%
17:00 +8°C° 0.2 mm 6 mps 759 mmHg 72%
18:00 +8°C° 0.1 mm 6 mps 760 mmHg 73%
19:00 +8°C° 0.1 mm 6 mps 760 mmHg 73%
20:00 +8°C° 0.1 mm 6 mps 761 mmHg 73%
21:00 +8°C° 0.1 mm 6 mps 761 mmHg 74%
22:00 +7°C° 0.1 mm 5 mps 761 mmHg 75%
23:00 +7°C° 0.1 mm 5 mps 761 mmHg 75%

6 December, Sunday

Time Temperature Precipitation Wind Pressure Humidity
00:00 +7°C° 0.1 mm 4 mps 761 mmHg 76%
01:00 +7°C° 0.1 mm 4 mps 761 mmHg 76%
02:00 +7°C° 0.1 mm 4 mps 761 mmHg 76%
03:00 +7°C° 0.1 mm 4 mps 761 mmHg 77%
04:00 +7°C° 0.1 mm 4 mps 761 mmHg 78%
05:00 +7°C° 0.1 mm 4 mps 761 mmHg 79%
06:00 +8°C° 0.1 mm 4 mps 761 mmHg 78%
07:00 +8°C° 0.1 mm 4 mps 762 mmHg 77%
08:00 +10°C° 0.1 mm 4 mps 762 mmHg 76%
09:00 +10°C° 0.1 mm 5 mps 762 mmHg 69%
10:00 +12°C° 0.1 mm 5 mps 762 mmHg 63%
11:00 +14°C° 0.1 mm 6 mps 762 mmHg 56%
12:00 +14°C° 0 mm 6 mps 762 mmHg 57%
13:00 +14°C° 0 mm 6 mps 762 mmHg 58%
14:00 +14°C° 0 mm 6 mps 762 mmHg 59%
15:00 +13°C° 0 mm 5 mps 762 mmHg 65%
16:00 +12°C° 0 mm 4 mps 762 mmHg 72%
17:00 +11°C° 0 mm 4 mps 762 mmHg 78%
18:00 +11°C° 0.1 mm 4 mps 762 mmHg 80%
19:00 +11°C° 0.1 mm 4 mps 763 mmHg 81%
20:00 +11°C° 0.1 mm 4 mps 763 mmHg 83%
21:00 +12°C° 0.2 mm 5 mps 763 mmHg 83%
22:00 +12°C° 0.2 mm 5 mps 763 mmHg 82%
23:00 +12°C° 0.2 mm 5 mps 763 mmHg 82%

7 December, Monday

Time Temperature Precipitation Wind Pressure Humidity
00:00 +13°C° 0.1 mm 5 mps 763 mmHg 83%
01:00 +13°C° 0.1 mm 5 mps 762 mmHg 83%
02:00 +13°C° 0.1 mm 6 mps 762 mmHg 83%
03:00 +13°C° 0.1 mm 6 mps 762 mmHg 84%
04:00 +13°C° 0.1 mm 6 mps 762 mmHg 84%
05:00 +14°C° 0.1 mm 7 mps 762 mmHg 85%
06:00 +14°C° 0.5 mm 7 mps 762 mmHg 84%
07:00 +14°C° 0.5 mm 7 mps 762 mmHg 83%
08:00 +15°C° 0.5 mm 6 mps 762 mmHg 82%
09:00 +15°C° 0.1 mm 7 mps 762 mmHg 78%
10:00 +16°C° 0.1 mm 7 mps 763 mmHg 73%
11:00 +17°C° 0.1 mm 7 mps 763 mmHg 69%
12:00 +17°C° 0.1 mm 7 mps 763 mmHg 69%
13:00 +17°C° 0.1 mm 7 mps 762 mmHg 69%
14:00 +17°C° 0.1 mm 7 mps 762 mmHg 68%
15:00 +15°C° 0 mm 6 mps 763 mmHg 73%
16:00 +14°C° 0 mm 5 mps 763 mmHg 77%
17:00 +13°C° 0 mm 5 mps 763 mmHg 81%
18:00 +13°C° 0 mm 5 mps 763 mmHg 81%
19:00 +13°C° 0 mm 4 mps 764 mmHg 80%
20:00 +13°C° 0 mm 4 mps 764 mmHg 80%
21:00 +13°C° 0 mm 5 mps 764 mmHg 79%
22:00 +14°C° 0 mm 5 mps 764 mmHg 78%
23:00 +14°C° 0 mm 5 mps 764 mmHg 77%

8 December, Tuesday

Time Temperature Precipitation Wind Pressure Humidity
00:00 +13°C° 0 mm 5 mps 764 mmHg 78%
01:00 +13°C° 0 mm 5 mps 764 mmHg 78%
02:00 +13°C° 0 mm 5 mps 764 mmHg 79%
03:00 +13°C° 0 mm 5 mps 764 mmHg 79%
04:00 +13°C° 0 mm 5 mps 764 mmHg 79%
05:00 +14°C° 0 mm 6 mps 764 mmHg 79%
06:00 +14°C° 0 mm 6 mps 764 mmHg 77%
07:00 +14°C° 0 mm 6 mps 764 mmHg 76%
08:00 +14°C° 0 mm 6 mps 765 mmHg 74%
09:00 +14°C° 0 mm 7 mps 765 mmHg 72%
10:00 +15°C° 0 mm 7 mps 765 mmHg 69%
11:00 +15°C° 0 mm 8 mps 765 mmHg 66%
12:00 +15°C° 0 mm 8 mps 765 mmHg 66%
13:00 +15°C° 0 mm 8 mps 764 mmHg 66%
14:00 +15°C° 0 mm 8 mps 764 mmHg 66%
15:00 +15°C° 0 mm 8 mps 764 mmHg 69%
16:00 +14°C° 0 mm 7 mps 765 mmHg 72%
17:00 +12°C° 0 mm 7 mps 765 mmHg 76%
18:00 +12°C° 0 mm 7 mps 765 mmHg 75%
19:00 +13°C° 0 mm 6 mps 765 mmHg 75%
20:00 +13°C° 0 mm 6 mps 766 mmHg 75%
21:00 +12°C° 0 mm 5 mps 766 mmHg 75%
22:00 +10°C° 0 mm 5 mps 766 mmHg 76%
23:00 +10°C° 0 mm 5 mps 766 mmHg 76%
Show more